Regional Weather Roundup
Issued by NWS Little Rock, AR

Home | Current Version | Previous Version | Text Only | Print | Product List | Glossary On
Versions: 1 2 3 4 5 6 7 8 9 10 11 12 13 14 15 16 17 18 19 20 21 22 23 24 25 26 27 28 29 30 31 32 33 34 35 36 37 38 39 40 41 42 43 44 45 46 47 48 49 50
000
ASUS44 KLZK 202005
RWRLZK

WEATHER ROUNDUP FOR ARKANSAS
NATIONAL WEATHER SERVICE LITTLE ROCK AR
300 PM CDT WED AUG 20 2014

NOTE: "FAIR" INDICATES FEW OR NO CLOUDS BELOW 12,000 FEET WITH NO
SIGNIFICANT WEATHER AND/OR OBSTRUCTIONS TO VISIBILITY.

ARZ001-003-010-029-202100-
NORTHWEST ARKANSAS

CITY           SKY/WX    TMP DP  RH WIND       PRES   REMARKS
FAYETTEVILLE   SUNNY     90  66  45 S17       30.01S HX  92
FORT SMITH     SUNNY     92  67  43 S9        29.98F HX  95
HARRISON       SUNNY     90  67  46 S8G16     30.02F HX  93
BENTONVILLE    SUNNY     90  61  37 SW12G18   30.02S HX  89
ROGERS         SUNNY     90  60  36 SW13      30.01F HX  89
SILOAM SPGS    SUNNY     88  66  48 SW12G21   30.01S HX  90
HIGHFILL       SUNNY     90  61  37 SW12G22   30.00F HX  90
SPRINGDALE     PTSUNNY   91  64  40 SW13G24   30.03S HX  93
$$

ARZ004-005-016-202100-
NORTH CENTRAL ARKANSAS

CITY           SKY/WX    TMP DP  RH WIND       PRES   REMARKS
BATESVILLE     SUNNY     97  64  34 SW8       29.98F HX  99
FLIPPIN          N/A     95  64  36 SW14G21   29.99F HX  97
MTN HOME       MOSUNNY   96  65  35 S14G21    29.98F HX  98
$$

ARZ040-041-202100-
WEST CENTRAL ARKANSAS

CITY           SKY/WX    TMP DP  RH WIND       PRES   REMARKS
MENA           SUNNY     91  72  52 CALM      30.03F HX  98
MOUNT IDA      SUNNY     89  70  53 VRB5      30.01F HX  94
$$

ARZ009-017-025-026-028-202100-
NORTHEAST ARKANSAS

CITY           SKY/WX    TMP DP  RH WIND       PRES   REMARKS
JONESBORO      SUNNY     94  73  50 SW16      29.98F HX 103
NEWPORT        SUNNY     96  75  50 S14       29.99F HX 107
WALNUT RIDGE   SUNNY     93  70  46 S16       29.96F HX  99
BLYTHEVILLE    MOSUNNY   92  77  61 SW6       29.99F HX 105
$$

ARZ022-023-033-042-044-202100-
CENTRAL ARKANSAS

CITY           SKY/WX    TMP DP  RH WIND       PRES   REMARKS
LITTLE ROCK    SUNNY     92  66  42 S14       30.01F HX  94
N LITTLE ROCK  SUNNY     92  72  51 SW7G22    30.01F HX  99
JACKSONVILLE   SUNNY     93  73  52 VRB6      30.01F HX 101
SEARCY           N/A     93  75  55 CALM        N/A  HX 104
HOT SPRINGS    SUNNY     91  70  49 VRB3      30.02F HX  96
RUSSELLVILLE   SUNNY     93  71  48 VRB7      30.00S HX 100
CLINTON        FAIR      97  70  41 SW12      29.99F HAZE    HX 103
$$

ARZ036-202100-
EAST ARKANSAS

CITY           SKY/WX    TMP DP  RH WIND       PRES   REMARKS
WEST MEMPHIS   SUNNY     92  73  53 SW6       30.00F HX 100
$$

ARZ050-053-066-070-073-202100-
SOUTHWEST ARKANSAS

CITY           SKY/WX    TMP DP  RH WIND       PRES   REMARKS
ARKADELPHIA    FAIR      93  76  57 S7        30.02F HX 105
CAMDEN         MOSUNNY   91  72  52 SW3       30.01F HX  98
TEXARKANA      SUNNY     91  69  48 CALM      30.00F HX  96
EL DORADO      MOSUNNY   91  74  57 S7        30.02F HX 100
DE QUEEN       SUNNY     89  73  59 VRB5      29.98F HX  97
$$

ARZ056-057-069-202100-
SOUTHEAST ARKANSAS

CITY           SKY/WX    TMP DP  RH WIND       PRES   REMARKS
PINE BLUFF     SUNNY     91  72  53 SW7       30.03F HX  98
STUTTGART      SUNNY     91  73  55 SW10      30.03F HX 100
MONTICELLO     PTSUNNY   91  73  55 S7        30.03F HX  99

$$





USA.gov is the U.S. government's official web portal to all federal, state and local government web resources and services.